EW4723 Weather Reports


time (UTC)temp
F
wind
direction
speed
knots
gust
knots
rain 1hr
in
rain 24hr
in
rain mn
in
humidity
%
barometer
mb
20260506222644 57 107 0.9 2.6 0.00 0.01 0.01 79 1019.5
20260506221854 56 107 0.0 2.6 0.00 0.01 0.01 77 1019.6
20260506221351 56 121 0.9 2.6 0.00 0.01 0.01 79 1019.6
20260506220848 56 142 0.9 2.6 0.00 0.01 0.01 78 1019.6
20260506220349 57 128 0.9 2.6 0.00 0.01 0.01 80 1019.6
20260506215849 56 71 0.9 3.5 0.00 0.01 0.01 80 1019.7
20260506215348 56 340 0.9 3.5 0.00 0.01 0.01 79 1019.6
20260506214844 56 280 0.9 3.5 0.00 0.01 0.01 80 1019.6
20260506214345 56 165 0.9 4.3 0.00 0.01 0.01 80 1019.6
20260506213844 56 327 0.9 4.3 0.00 0.01 0.01 83 1019.6
20260506213342 56 338 0.9 3.5 0.00 0.01 0.01 80 1019.6
20260506212844 56 54 0.9 3.5 0.00 0.01 0.01 81 1019.7
20260506212342 56 338 0.0 3.5 0.00 0.01 0.01 81 1019.7
20260506211844 56 13 0.0 0.0 0.00 0.01 0.01 80 1019.7
20260506211342 56 289 0.0 2.6 0.00 0.01 0.01 81 1019.8
20260506210842 56 289 0.0 2.6 0.00 0.01 0.01 85 1019.7
20260506210342 55 189 0.9 3.5 0.00 0.01 0.01 83 1019.6
20260506205838 55 252 0.9 3.5 0.00 0.01 0.01 83 1019.6
20260506205337 55 93 0.9 4.3 0.00 0.01 0.01 82 1019.6
20260506204836 55 302 0.9 5.2 0.00 0.01 0.01 82 1019.6
20260506204338 55 315 0.9 5.2 0.00 0.01 0.01 83 1019.7
20260506203837 54 327 0.9 2.6 0.00 0.01 0.01 85 1019.6
20260506203335 54 59 0.9 3.5 0.00 0.01 0.01 86 1019.7
20260506202834 54 293 0.0 3.5 0.00 0.01 0.01 86 1019.7
20260506202328 53 29 0.0 1.7 0.00 0.01 0.01 87 1019.7
20260506201823 53 30 0.9 6.1 0.00 0.01 0.01 89 1019.7
20260506201600 53 31 0.9 6.1 0.00 0.01 0.01 88 1019.7
20260506200811 53 304 0.9 3.5 0.00 0.01 0.01 88 1019.7
20260506200305 53 13 0.9 4.3 0.00 0.01 0.01 88 1019.6
20260506200047 53 347 0.9 4.3 0.00 0.01 0.01 88 1019.6
20260506195253 53 10 0.9 6.1 0.00 0.01 0.01 91 1019.6
20260506194746 53 55 0.0 6.1 0.00 0.01 0.01 89 1019.6
20260506194240 53 169 0.0 3.5 0.00 0.01 0.01 90 1019.6
20260506193734 53 0 0.9 6.1 0.00 0.01 0.01 91 1019.5
20260506193228 52 302 0.9 6.1 0.00 0.01 0.01 90 1019.5
20260506192722 52 298 1.7 7.0 0.00 0.01 0.01 90 1019.5
20260506192217 52 335 0.9 7.0 0.00 0.01 0.01 89 1019.5
20260506191711 52 184 0.0 4.3 0.00 0.01 0.01 91 1019.5
20260506191205 52 296 0.0 3.5 0.00 0.01 0.01 92 1019.4
20260506190700 52 302 0.9 3.5 0.00 0.01 0.01 91 1019.4
20260506190153 52 289 0.9 2.6 0.00 0.01 0.01 92 1019.3
20260506185647 52 307 0.9 4.3 0.00 0.01 0.01 93 1019.2
20260506185140 52 223 0.9 4.3 0.00 0.01 0.01 94 1019.3
20260506184634 51 328 0.9 2.6 0.00 0.01 0.01 93 1019.3
20260506184128 51 48 0.0 4.3 0.00 0.01 0.01 94 1019.3
20260506183622 51 350 0.0 4.3 0.00 0.01 0.01 95 1019.2
20260506183116 51 325 0.0 2.6 0.00 0.01 0.01 94 1019.2
20260506182610 51 0 0.0 2.6 0.00 0.01 0.01 94 1019.1
20260506182105 51 348 0.9 2.6 0.00 0.01 0.01 94 1019.2
20260506181558 51 336 0.9 2.6 0.00 0.01 0.01 94 1019.2
20260506181053 51 292 0.0 4.3 0.00 0.01 0.01 94 1019.2
20260506180547 51 280 0.0 4.3 0.00 0.01 0.01 94 1019.3
20260506180046 51 11 0.9 3.5 0.00 0.01 0.01 94 1019.2
20260506175546 51 346 0.9 3.5 0.00 0.01 0.01 94 1019.2
20260506175046 51 339 0.0 3.5 0.00 0.01 0.01 95 1019.1
20260506174546 51 350 0.0 2.6 0.00 0.01 0.01 95 1019.1
20260506174045 50 265 0.0 2.6 0.00 0.01 0.01 95 1019.0
20260506173543 51 270 0.0 1.7 0.00 0.01 0.01 95 1018.9
20260506173041 51 345 0.0 3.5 0.01 0.01 0.01 96 1019.0
20260506172544 50 292 0.9 3.5 0.01 0.01 0.01 95 1018.9
20260506172331 50 244 0.9 3.5 0.01 0.01 0.01 96 1018.9
20260506171538 50 54 0.9 3.5 0.01 0.01 0.01 95 1018.8
20260506171039 50 340 0.9 2.6 0.01 0.01 0.01 96 1018.8
20260506170539 50 307 0.0 5.2 0.01 0.01 0.01 96 1018.8
20260506170037 50 0 0.0 5.2 0.01 0.01 0.01 96 1018.6
20260506165537 50 26 0.0 1.7 0.01 0.01 0.01 96 1018.4
20260506165330 50 121 0.0 1.7 0.01 0.01 0.01 96 1018.5
20260506164535 50 117 0.0 1.7 0.01 0.01 0.01 96 1018.6
20260506164035 50 257 0.0 2.6 0.01 0.01 0.01 96 1018.7
20260506163530 50 201 0.0 2.6 0.00 0.00 0.00 96 1018.8
20260506163032 50 106 0.0 0.0 0.00 0.00 0.00 96 1018.8
20260506162528 50 346 0.0 0.0 0.00 0.00 0.00 96 1018.7
20260506162028 50 300 0.0 0.0 0.00 0.00 0.00 96 1018.7
20260506161527 50 296 0.0 0.0 0.00 0.00 0.00 96 1018.7
20260506161035 50 335 0.0 0.0 0.00 0.00 0.00 96 1018.8
20260506160522 50 299 0.0 0.0 0.00 0.00 0.00 96 1018.9
20260506160023 50 303 0.0 0.0 0.00 0.00 0.00 96 1018.9
20260506155521 50 317 0.0 0.0 0.00 0.00 0.00 96 1018.8
20260506155020 50 317 0.0 0.0 0.00 0.00 0.00 96 1018.8
20260506154519 50 317 0.0 0.0 0.00 0.00 0.00 96 1018.8
20260506154020 50 281 0.0 1.7 0.00 0.00 0.00 96 1018.7
20260506153521 50 280 0.0 2.6 0.00 0.00 0.00 96 1018.7
20260506153019 50 279 0.0 2.6 0.00 0.00 0.00 96 1018.7
20260506152520 50 277 0.0 1.7 0.00 0.00 0.00 96 1018.6
20260506152021 51 277 0.0 2.6 0.00 0.00 0.00 96 1018.4
20260506151520 51 278 0.0 2.6 0.00 0.00 0.00 96 1018.2
20260506151021 51 219 0.0 0.0 0.00 0.00 0.00 96 1018.2
20260506150806 51 219 0.0 0.0 0.00 0.00 0.00 96 1018.1
20260506150021 51 219 0.0 0.0 0.00 0.00 0.00 96 1018.1
20260506145805 51 219 0.0 0.0 0.00 0.00 0.00 96 1018.0
20260506145017 51 169 0.0 3.5 0.00 0.00 0.00 96 1017.9
20260506144516 51 169 0.0 3.5 0.00 0.00 0.00 96 1017.9
20260506144016 51 342 0.0 0.0 0.00 0.00 0.00 96 1017.8
20260506143514 51 342 0.0 0.0 0.00 0.00 0.00 96 1018.0
20260506143013 50 342 0.0 0.0 0.00 0.00 0.00 96 1018.2
20260506142802 50 342 0.0 0.0 0.00 0.00 0.00 96 1018.1
20260506142013 50 342 0.0 0.0 0.00 0.00 0.00 96 1018.1
20260506141513 50 342 0.0 0.0 0.00 0.00 0.00 96 1018.1
20260506141011 50 342 0.0 0.0 0.00 0.00 0.00 96 1018.1
20260506140507 50 342 0.0 0.0 0.00 0.00 0.00 96 1018.1
20260506140008 50 342 0.0 0.0 0.00 0.00 0.00 96 1017.8
20260506135758 50 342 0.0 0.0 0.00 0.00 0.00 96 1017.7
20260506135000 50 342 0.0 0.0 0.00 0.00 0.00 96 1017.7
20260506134501 50 342 0.0 0.0 0.00 0.00 0.00 96 1017.8
20260506134001 50 342 0.0 0.0 0.00 0.00 0.00 96 1017.7
20260506133459 50 342 0.0 0.0 0.00 0.00 0.00 96 1017.7
20260506133251 50 342 0.0 0.0 0.00 0.00 0.00 96 1017.6
20260506132500 50 342 0.0 0.0 0.00 0.00 0.00 96 1017.6
20260506131957 50 342 0.0 0.0 0.00 0.00 0.00 95 1017.6
20260506131457 50 342 0.0 0.0 0.00 0.00 0.00 95 1017.6
20260506130959 50 342 0.0 0.0 0.00 0.00 0.00 95 1017.7
20260506130457 50 342 0.0 0.0 0.00 0.00 0.00 95 1017.7
20260506125953 50 342 0.0 0.0 0.00 0.00 0.00 95 1017.6
20260506125452 50 342 0.0 0.0 0.00 0.00 0.00 95 1017.6
20260506124949 50 342 0.0 1.7 0.00 0.00 0.00 95 1017.7
20260506124737 50 338 0.0 1.7 0.00 0.00 0.00 95 1017.7
20260506123945 50 327 0.0 2.6 0.00 0.00 0.00 95 1017.5
20260506123447 50 326 0.0 2.6 0.00 0.00 0.00 95 1017.8
20260506122947 50 5 0.0 0.0 0.00 0.00 0.00 95 1017.8
20260506122445 50 5 0.0 1.7 0.00 0.00 0.00 95 1017.7
20260506121943 50 5 0.0 1.7 0.00 0.00 0.00 94 1017.6
20260506121439 50 5 0.0 0.0 0.00 0.00 0.00 94 1017.6
20260506121232 50 5 0.0 0.0 0.00 0.00 0.00 94 1017.5
20260506120434 50 5 0.0 0.0 0.00 0.00 0.00 94 1017.6
20260506115928 50 5 0.0 1.7 0.00 0.00 0.00 94 1017.6
20260506115422 50 248 0.0 3.5 0.00 0.00 0.00 93 1017.4
20260506114916 50 236 0.0 3.5 0.00 0.00 0.00 93 1017.3
20260506114411 50 284 0.0 2.6 0.00 0.00 0.00 93 1017.5
20260506113904 50 183 0.0 1.7 0.00 0.00 0.00 93 1017.5
20260506113358 50 325 0.0 2.6 0.00 0.00 0.00 93 1017.4
20260506112852 50 325 0.0 2.6 0.00 0.00 0.00 92 1017.3
20260506112632 50 109 0.0 3.5 0.00 0.00 0.00 92 1017.2
20260506111840 51 355 0.0 3.5 0.00 0.00 0.00 92 1017.2
20260506111334 51 9 0.0 1.7 0.00 0.00 0.00 92 1017.2
20260506110828 51 313 0.0 1.7 0.00 0.00 0.00 92 1017.0
20260506110322 51 303 0.0 0.0 0.00 0.00 0.00 92 1017.0
20260506110104 51 303 0.0 0.0 0.00 0.00 0.00 92 1017.0
20260506105309 51 303 0.0 0.0 0.00 0.00 0.00 92 1016.9
20260506104804 51 303 0.0 0.0 0.00 0.00 0.00 92 1016.8
20260506104258 51 303 0.0 0.0 0.00 0.00 0.00 92 1016.6
20260506103751 51 303 0.0 0.0 0.00 0.00 0.00 91 1016.6
20260506103246 51 303 0.0 0.0 0.00 0.00 0.00 92 1016.5
20260506102740 51 303 0.0 0.0 0.00 0.00 0.00 92 1016.4
20260506102234 51 303 0.0 0.0 0.00 0.00 0.00 92 1016.4
20260506101728 51 303 0.0 0.0 0.00 0.00 0.00 92 1016.4
20260506101222 51 303 0.0 2.6 0.00 0.00 0.00 91 1016.3
20260506100716 51 302 0.0 2.6 0.00 0.00 0.00 91 1016.4
20260506100210 51 303 0.0 0.9 0.00 0.00 0.00 92 1016.3
20260506095705 51 303 0.0 2.6 0.00 0.00 0.00 92 1016.3
20260506095158 51 323 0.9 2.6 0.00 0.00 0.00 92 1016.3
20260506094652 51 294 0.0 2.6 0.00 0.00 0.00 92 1016.3
20260506094147 51 22 0.0 1.7 0.00 0.00 0.00 92 1016.4
20260506093647 51 341 0.0 0.0 0.00 0.00 0.00 93 1016.3
20260506093148 51 351 0.0 0.9 0.00 0.00 0.00 93 1016.3
20260506092647 51 351 0.0 2.6 0.00 0.00 0.00 93 1016.3
20260506092145 50 350 0.9 3.5 0.00 0.00 0.00 93 1016.2
20260506091644 50 327 0.0 3.5 0.00 0.00 0.00 93 1016.2
20260506091143 50 26 0.0 1.7 0.00 0.00 0.00 93 1016.3
20260506090644 50 50 0.0 2.6 0.00 0.00 0.00 93 1016.3
20260506090144 50 298 0.0 3.5 0.00 0.00 0.00 94 1016.2
20260506085927 50 302 0.0 3.5 0.00 0.00 0.00 94 1016.2
20260506085144 50 336 0.0 2.6 0.00 0.00 0.00 95 1016.2
20260506084930 49 245 0.0 2.6 0.00 0.00 0.00 95 1016.2
20260506084431 49 22 0.0 2.6 0.00 0.00 0.00 94 1016.1
20260506083639 49 23 0.0 2.6 0.00 0.00 0.00 95 1016.1
20260506083140 49 355 0.0 2.6 0.00 0.00 0.00 95 1016.1
20260506082636 49 350 0.0 2.6 0.00 0.00 0.00 95 1016.1
20260506082135 48 313 0.0 2.6 0.00 0.00 0.00 95 1016.1
20260506081636 49 269 0.0 2.6 0.00 0.00 0.00 95 1016.0
20260506081135 48 5 0.0 2.6 0.00 0.00 0.00 95 1015.9
20260506080635 48 5 0.0 2.6 0.00 0.00 0.00 95 1015.8
20260506080135 48 83 0.0 1.7 0.00 0.00 0.00 94 1015.8
20260506073132 48 338 0.0 0.9 0.00 0.00 0.00 94 1015.5
20260506072632 48 319 0.0 1.7 0.00 0.00 0.00 94 1015.4
20260506072132 48 319 0.0 1.7 0.00 0.00 0.00 94 1015.4
20260506071921 48 324 0.0 0.0 0.00 0.00 0.00 93 1015.4
20260506071131 49 331 0.0 0.0 0.00 0.00 0.00 93 1015.3
20260506070631 49 331 0.0 1.7 0.00 0.00 0.00 93 1015.3
20260506070132 49 331 0.0 2.6 0.00 0.00 0.00 93 1015.4
20260506062122 50 315 0.9 4.3 0.00 0.00 0.00 92 1015.1
20260506061912 50 5 0.9 5.2 0.00 0.00 0.00 92 1015.1
20260506061121 50 345 0.9 7.0 0.00 0.00 0.00 92 1015.0
20260506060624 50 292 0.9 7.0 0.00 0.00 0.00 92 1015.1
20260506060121 50 324 0.9 4.3 0.00 0.00 0.00 92 1015.2
20260506051122 51 11 1.7 5.2 0.00 0.00 0.00 91 1015.1
20260506050623 51 243 0.9 2.6 0.00 0.00 0.00 91 1015.0
20260506050121 51 17 0.9 3.5 0.00 0.00 0.00 91 1015.1
20260506045121 51 344 0.9 6.1 0.00 0.00 0.00 91 1014.9
20260506044621 51 355 0.9 4.3 0.00 0.00 0.00 91 1014.9
20260506044120 51 25 0.9 4.3 0.00 0.00 0.00 91 1014.8
20260506043912 51 296 0.9 4.3 0.00 0.00 0.00 91 1014.8
20260506043116 51 294 0.9 4.3 0.00 0.00 0.00 91 1014.6
20260506042712 51 355 0.9 2.6 0.00 0.00 0.00 91 1014.5
20260506042654 51 338 0.9 4.3 0.00 0.00 0.00 91 1014.6
20260506041612 51 15 0.0 2.6 0.00 0.00 0.00 92 1014.5
20260506041357 50 304 0.0 0.0 0.00 0.00 0.00 92 1014.4
20260506040559 50 299 0.0 0.0 0.00 0.00 0.00 91 1014.3
20260506040053 51 299 0.0 0.0 0.00 0.00 0.00 91 1014.2
20260506035548 51 299 0.0 0.0 0.00 0.00 0.00 91 1014.1
20260506035335 51 299 0.0 0.0 0.00 0.00 0.00 91 1014.0
20260506034536 51 299 0.0 0.0 0.00 0.00 0.00 91 1014.1
20260506034317 51 299 0.0 0.0 0.00 0.00 0.00 91 1014.0
20260506033748 51 319 0.0 0.0 0.00 0.00 0.00 90 1014.0
20260506033017 51 319 0.0 0.0 0.00 0.00 0.00 90 1013.9
20260506032511 51 319 0.0 0.0 0.00 0.00 0.00 90 1013.8
20260506032252 52 319 0.0 0.0 0.00 0.00 0.00 89 1013.9
20260506031459 52 320 0.0 0.0 0.00 0.00 0.00 88 1014.0
20260506030954 52 320 0.0 0.0 0.00 0.00 0.00 88 1014.0
20260506030448 53 320 0.0 0.0 0.00 0.00 0.00 87 1014.0
20260506030230 53 320 0.0 0.9 0.00 0.00 0.00 87 1013.9
20260506025436 53 313 0.0 1.7 0.00 0.00 0.00 87 1014.0
20260506024931 53 341 0.9 4.3 0.00 0.00 0.00 87 1014.0
20260506024423 53 340 0.0 4.3 0.00 0.00 0.00 86 1014.0
20260506023953 53 247 0.9 4.3 0.00 0.00 0.00 86 1013.9
20260506023940 53 11 0.9 4.3 0.00 0.00 0.00 86 1014.0
20260506022905 53 227 0.0 2.6 0.00 0.00 0.00 86 1013.9
20260506022400 53 346 0.9 2.6 0.00 0.00 0.00 85 1014.0
20260506021854 54 332 0.9 4.3 0.00 0.00 0.00 85 1014.0
20260506021347 54 15 0.9 4.3 0.00 0.00 0.00 85 1014.0
20260506021144 54 336 0.9 5.2 0.00 0.00 0.00 85 1014.0
20260506020336 54 330 0.9 5.2 0.00 0.00 0.00 84 1014.0
20260506015829 54 28 0.9 4.3 0.00 0.00 0.00 84 1014.0
20260506015610 54 5 0.9 4.3 0.00 0.00 0.00 84 1014.0
20260506014820 55 269 0.9 3.5 0.00 0.00 0.00 83 1014.0
20260506014614 55 290 0.9 3.5 0.00 0.00 0.00 83 1014.1
20260506013805 55 250 0.9 4.3 0.00 0.00 0.00 83 1014.1
20260506013301 55 284 0.9 4.3 0.00 0.00 0.00 81 1014.1
20260506012754 56 44 0.9 3.5 0.00 0.00 0.00 82 1014.2
20260506012248 56 231 0.9 3.5 0.00 0.00 0.00 81 1014.1
20260506012046 56 246 0.9 2.6 0.00 0.00 0.00 81 1014.1
20260506011531 56 313 0.9 7.0 0.00 0.00 0.00 81 1014.1
20260506010745 56 264 1.7 7.0 0.00 0.00 0.00 81 1014.2
20260506010242 56 5 0.9 7.0 0.00 0.00 0.00 80 1014.2
20260506005743 56 331 0.9 5.2 0.00 0.00 0.00 80 1014.2
20260506005244 57 319 1.7 7.8 0.00 0.00 0.00 79 1014.2
20260506004826 57 321 1.7 4.3 0.00 0.00 0.00 78 1014.2
20260506004812 57 5 1.7 7.8 0.00 0.00 0.00 80 1014.2
20260506003738 57 223 1.7 4.3 0.00 0.00 0.00 78 1014.2
20260506003237 58 265 1.7 3.5 0.00 0.00 0.00 77 1014.3
20260506002735 58 300 0.9 3.5 0.00 0.00 0.00 77 1014.3
20260506002238 59 279 1.7 5.2 0.00 0.00 0.00 76 1014.2
20260506002024 59 335 0.9 5.2 0.00 0.00 0.00 76 1014.3
20260506001232 60 297 0.9 3.5 0.00 0.00 0.00 76 1014.2
20260506000732 60 278 0.9 3.5 0.00 0.00 0.00 75 1014.3
20260506000519 59 249 0.9 5.2 0.00 0.00 0.00 75 1014.3
20260506000029 59 341 0.9 5.2 0.00 0.00 0.00 75 1014.3
20260505235230 60 355 0.9 4.3 0.00 0.00 0.00 76 1014.4
20260505234730 59 302 1.7 7.0 0.00 0.00 0.00 77 1014.4
20260505234513 58 5 0.9 7.0 0.00 0.00 0.00 78 1014.5
20260505233717 59 346 0.9 4.3 0.00 0.00 0.00 77 1014.5
20260505233216 59 290 1.7 5.2 0.00 0.00 0.00 79 1014.6
20260505232717 59 281 1.7 5.2 0.00 0.00 0.00 77 1014.6
20260505232218 59 287 1.7 7.0 0.00 0.00 0.00 78 1014.6
20260505231715 59 340 1.7 7.0 0.00 0.00 0.00 78 1014.7
20260505231214 58 350 1.7 4.3 0.00 0.00 0.00 78 1014.6
20260505230715 59 341 0.9 4.3 0.00 0.00 0.00 80 1014.6
20260505230212 59 329 0.9 3.5 0.00 0.00 0.00 77 1014.7
20260505225713 60 11 0.9 3.5 0.00 0.00 0.00 78 1014.7
20260505225214 59 324 0.9 3.5 0.00 0.00 0.00 79 1014.8
20260505224711 59 317 0.9 6.1 0.00 0.00 0.00 78 1014.9
20260505224212 58 302 1.7 6.1 0.00 0.00 0.00 80 1014.9
20260505223710 58 265 1.7 5.2 0.00 0.00 0.00 79 1014.9
20260505223210 58 300 1.7 5.2 0.00 0.00 0.00 80 1014.9
20260505222710 58 302 1.7 5.2 0.00 0.00 0.00 81 1014.9